Location: Staunton
(38.1490°N, 79.0720°W)
Time: 02:18:08
(UTC-04:00)

ISS - Pass Details

Date: 14 October 2018
Orbit: 403 x 408 km, 51.6° (Epoch: 21 October)

Event Time Altitude Azimuth Distance (km) Brightness Sun altitude
Rises 19:15:58 0° 300° (WNW) 2,333 1.1 -7.9°
Reaches altitude 10° 19:18:13 10° 289° (WNW) 1,468 0.3 -8.3°
Maximum altitude 19:21:07 29° 227° (SW) 777 -1.8 -8.9°
Drops below altitude 10° 19:24:00 10° 165° (SSE) 1,458 -1.1 -9.5°
Sets 19:26:14 0° 153° (SSE) 2,313 -0.2 -9.9°
